Weather History for Marshalltown, IA

Change the Weather History Date:

Thursday, September 26, 2013

  Actual Average Record
Temperature  
Mean Temperature 70 °F 58 °F  
Max Temperature 84 °F 71 °F 89 °F (1998)
Min Temperature 55 °F 46 °F 32 °F (2001)
Degree Days  
Heating Degree Days 0 8  
Month to date heating degree days 63 102  
Since 1 July heating degree days 84 123  
Cooling Degree Days 5 1  
Month to date cooling degree days 136 58  
Year to date cooling degree days 848 714  
Growing Degree Days 20 (Base 50)    
Moisture  
Dew Point 56 °F    
Average Humidity 65    
Maximum Humidity 86    
Minimum Humidity 43    
Precipitation  
Precipitation 0.00 in 0.09 in 0.41 in (1999)
Month to date precipitation 1.54 2.99  
Sea Level Pressure  
Sea Level Pressure 29.92 in    
Wind  
Wind Speed 12 mph (SE)    
Max Wind Speed 24 mph    
Max Gust Speed 30 mph    
Visibility 10 miles    
Events      
T = Trace of Precipitation, MM = Missing Value Source: NWS Daily Summary

Daily Weather History Graph

Daily Weather History Graph

Search for Another Location

Airport:

Trip Planner

Search our weather history database for the weather conditions in past years. The results will help you decide how hot, cold, wet, or windy it might be!

Date:

Astronomy

Sep. 26, 2013 Rise Set
Actual Time 7:03 AM CDT 7:01 PM CDT
Civil Twilight 6:35 AM CDT 7:29 PM CDT
Nautical Twilight 6:03 AM CDT 8:01 PM CDT
Astronomical Twilight 5:29 AM CDT 8:34 PM CDT
Moon 11:55 PM CDT (9/26) 2:01 PM CDT (9/26)
Length of Visible Light 12h 53m
Length of Day
11h 57m
Waning Gibbous, 54% of the Moon is Illuminated
Sep 26
Waning Gibbous
Sep 26
Last Quarter
Oct 4
New
Oct 11
First Quarter
Oct 18
Full

Hourly Weather History & Observations

Time (CDT) Temp. Heat Index Dew Point Humidity Pressure Visibility Wind Dir Wind Speed Gust Speed Precip Events Conditions
12:53 AM 55.9 °F - 52.0 °F 87% 29.89 in 10.0 mi ESE 6.9 mph - N/A   Clear
1:53 AM 55.9 °F - 52.0 °F 87% 29.91 in 10.0 mi East 5.8 mph - N/A   Partly Cloudy
2:53 AM 55.0 °F - 52.0 °F 89% 29.92 in 10.0 mi East 8.1 mph - N/A   Clear
3:53 AM 57.0 °F - 52.0 °F 83% 29.92 in 10.0 mi ESE 8.1 mph - N/A   Partly Cloudy
4:53 AM 55.9 °F - 52.0 °F 87% 29.93 in 10.0 mi ESE 9.2 mph - N/A   Clear
5:53 AM 55.0 °F - 51.1 °F 86% 29.93 in 9.0 mi ESE 9.2 mph - N/A   Clear
6:53 AM 55.0 °F - 51.1 °F 86% 29.94 in 9.0 mi ESE 9.2 mph - N/A   Clear
7:53 AM 57.0 °F - 52.0 °F 83% 29.94 in 8.0 mi ESE 10.4 mph - N/A   Clear
8:53 AM 60.1 °F - 53.1 °F 78% 29.95 in 9.0 mi SE 12.7 mph - N/A   Clear
9:53 AM 64.0 °F - 55.0 °F 73% 29.96 in 10.0 mi SSE 10.4 mph - N/A   Clear
10:53 AM 71.1 °F - 57.9 °F 63% 29.95 in 10.0 mi SE 11.5 mph - N/A   Clear
11:53 AM 77.0 °F - 60.1 °F 56% 29.94 in 10.0 mi SSE 20.7 mph 25.3 mph N/A   Clear
12:53 PM 80.1 °F 80.9 °F 60.1 °F 50% 29.92 in 10.0 mi SSE 19.6 mph 29.9 mph N/A   Clear
1:53 PM 82.0 °F 82.4 °F 60.1 °F 47% 29.90 in 10.0 mi SSE 19.6 mph 25.3 mph N/A   Clear
2:53 PM 82.9 °F 83.2 °F 60.1 °F 46% 29.88 in 10.0 mi SSE 17.3 mph 26.5 mph N/A   Clear
3:53 PM 84.0 °F 83.8 °F 59.0 °F 43% 29.87 in 10.0 mi SSE 15.0 mph 27.6 mph N/A   Clear
4:53 PM 82.9 °F 82.6 °F 57.9 °F 42% 29.87 in 10.0 mi South 16.1 mph 23.0 mph N/A   Clear
5:53 PM 82.0 °F 82.0 °F 57.9 °F 44% 29.88 in 10.0 mi SSE 17.3 mph 21.9 mph N/A   Clear
6:53 PM 75.9 °F - 59.0 °F 56% 29.89 in 10.0 mi SE 8.1 mph - N/A   Clear
7:53 PM 73.0 °F - 60.1 °F 64% 29.90 in 10.0 mi SE 8.1 mph - N/A   Clear
8:53 PM 73.0 °F - 60.1 °F 64% 29.91 in 10.0 mi SE 12.7 mph - N/A   Clear
9:53 PM 71.1 °F - 59.0 °F 66% 29.92 in 10.0 mi SE 12.7 mph - N/A   Clear
10:53 PM 69.1 °F - 59.0 °F 70% 29.93 in 10.0 mi SE 11.5 mph - N/A   Clear
11:53 PM 68.0 °F - 59.0 °F 73% 29.94 in 10.0 mi SSE 11.5 mph - N/A   Clear